Fayetteville, NC

6:55 PM EDT on May 23, 2017 (GMT -0400)
Fayetteville Regional-Grannis

Weather History for KFAY - March, 2013

Change the Weather History Date:

Monday, March 11, 2013

  Actual Average Record
Temperature  
Mean Temperature 56 °F 53 °F  
Max Temperature 72 °F 65 °F 87 °F (1925)
Min Temperature 39 °F 41 °F 23 °F (1996)
Degree Days  
Heating Degree Days 9 13  
Month to date heating degree days 208 153  
Since 1 July heating degree days 2304 2378  
Cooling Degree Days 0 0  
Month to date cooling degree days 0 0  
Year to date cooling degree days 5 4  
Growing Degree Days 4 (Base 50)    
Moisture  
Dew Point 43 °F    
Average Humidity 60    
Maximum Humidity 86    
Minimum Humidity 34    
Precipitation  
Precipitation 0.00 in 0.10 in 1.90 in (1934)
Month to date precipitation 0.12 1.16  
Year to date precipitation 5.76 7.22  
Sea Level Pressure  
Sea Level Pressure 30.08 in    
Wind  
Wind Speed 8 mph (SE)    
Max Wind Speed 21 mph    
Max Gust Speed 28 mph    
Visibility 10 miles    
Events      
T = Trace of Precipitation, MM = Missing Value Source: NWS Daily Summary

Daily Weather History Graph

Daily Weather History Graph

Search for Another Location

Airport or City:

Trip Planner

Search our weather history database for the weather conditions in past years. The results will help you decide how hot, cold, wet, or windy it might be!

Date:

Astronomy

Mar. 11, 2013 Rise Set
Actual Time 7:31 AM EDT 7:20 PM EDT
Civil Twilight 7:06 AM EDT 7:45 PM EDT
Nautical Twilight 6:36 AM EDT 8:14 PM EDT
Astronomical Twilight 6:07 AM EDT 8:44 PM EDT
Moon 7:05 AM EDT (3/11) 7:28 PM EDT (3/11)
Length of Visible Light 12h 39m
Length of Day
11h 48m
Waning Crescent, 0% of the Moon is Illuminated
Mar 11
Waning Crescent
Mar 11
New
Mar 19
First Quarter
Mar 27
Full
Apr 3
Last Quarter

Hourly Weather History & Observations

Time (EDT) Temp. Windchill Dew Point Humidity Pressure Visibility Wind Dir Wind Speed Gust Speed Precip Events Conditions
12:53 AM 46.0 °F 44.8 °F 19.9 °F 35% 30.22 in 10.0 mi South 3.5 mph - N/A   Clear
1:53 AM 43.0 °F 41.3 °F 24.1 °F 47% 30.23 in 10.0 mi SW 3.5 mph - N/A   Clear
2:53 AM 43.0 °F - 23.0 °F 45% 30.20 in 10.0 mi Calm Calm - N/A   Clear
3:53 AM 39.9 °F 36.7 °F 26.1 °F 58% 30.18 in 10.0 mi ESE 4.6 mph - N/A   Clear
4:53 AM 43.0 °F - 35.1 °F 74% 30.16 in 10.0 mi Calm Calm - N/A   Mostly Cloudy
5:53 AM 41.0 °F 39.0 °F 35.1 °F 79% 30.16 in 10.0 mi ESE 3.5 mph - N/A   Partly Cloudy
6:53 AM 39.9 °F - 36.0 °F 86% 30.15 in 10.0 mi Calm Calm - N/A   Mostly Cloudy
7:53 AM 41.0 °F - 37.0 °F 86% 30.16 in 10.0 mi Calm Calm - N/A   Clear
8:53 AM 46.0 °F 43.9 °F 43.0 °F 89% 30.16 in 6.0 mi ESE 4.6 mph - N/A   Clear
9:53 AM 52.0 °F - 46.0 °F 80% 30.14 in 6.0 mi ESE 4.6 mph - N/A   Haze
10:53 AM 59.0 °F - 48.0 °F 67% 30.12 in 10.0 mi SE 6.9 mph - N/A   Clear
11:53 AM 68.0 °F - 48.0 °F 49% 30.11 in 10.0 mi SSE 12.7 mph 23.0 mph N/A   Scattered Clouds
12:53 PM 70.0 °F - 46.9 °F 44% 30.09 in 10.0 mi SSE 13.8 mph 24.2 mph N/A   Overcast
1:53 PM 70.0 °F - 46.9 °F 44% 30.07 in 10.0 mi South 15.0 mph 23.0 mph N/A   Overcast
2:53 PM 69.1 °F - 48.9 °F 49% 30.03 in 10.0 mi SSE 11.5 mph 19.6 mph N/A   Overcast
3:53 PM 69.1 °F - 51.1 °F 53% 30.00 in 10.0 mi SE 13.8 mph 21.9 mph N/A   Overcast
4:53 PM 69.1 °F - 51.1 °F 53% 29.97 in 10.0 mi SSE 16.1 mph 25.3 mph N/A   Overcast
5:53 PM 66.9 °F - 52.0 °F 59% 29.98 in 10.0 mi SE 16.1 mph - N/A   Overcast
6:53 PM 64.9 °F - 52.0 °F 63% 29.98 in 10.0 mi SE 11.5 mph 27.6 mph N/A   Mostly Cloudy
7:53 PM 64.0 °F - 52.0 °F 65% 29.96 in 10.0 mi SSE 17.3 mph 23.0 mph N/A   Overcast
8:53 PM 62.1 °F - 53.1 °F 72% 29.96 in 10.0 mi SE 9.2 mph - N/A   Mostly Cloudy
9:53 PM 61.0 °F - 53.1 °F 75% 29.96 in 10.0 mi SE 6.9 mph - N/A   Partly Cloudy
10:53 PM 61.0 °F - 53.1 °F 75% 29.95 in 10.0 mi SSE 5.8 mph - N/A   Overcast
11:53 PM 61.0 °F - 54.0 °F 78% 29.94 in 10.0 mi SSE 3.5 mph - N/A   Overcast